Content
SEND FEEDBACK

Daily
Averages
Monthly
Summary
United States of America

FAIRVIEW, PENNSYLVANIA


Home > North America > United States > Pennsylvania
Elevation: 212 meters     Latitude: 42 05N     Longitude: 080 11W

WEATHER
 
SELECT A DAY
Number of Records: 228,279;   Date Range: 1/1/95 - 11/24/14
 
SHARE

PRINT THIS DATA

[ ← Previous Day ]
WEATHER ALMANAC - 31 JANUARY, 2013
[ Next Day → ]
[ °F ]   °C
Weather ElementAverageHighLow
Temperature-3.5 °C3.3 °C (12:51 am)-6.1 °C (10:51 pm)
Dewpoint-7.3 °C0.6 °C (12:51 am)-12 °C (11:08 pm)
Humidity75.6 %93 % (3:34 pm)55 % (7:51 pm)
Barometer1002.4 hPa1009.8 hPa (10:51 pm)989.5 hPa (12:51 am)
Wind Speed34.9 km/h50.1 km/h (9:55 am)
Wind Gust79.7 km/h (4:05 pm)
Weather ElementAverage
Visibility4.8 km
Wind DirectionWSW (256.3 °)

Weather ElementTotal
Precipitation2.54 mm
Heating Degree Days19.8 (Base 18.3)
Averaged from 88 records on 31 January, 2013
WEATHER CONDITIONS BREAKOUT
WIND DIRECTION BREAKOUT
WEATHER BY HOUR - 31 JANUARY, 2013
[ °F ]   °C
Local TimeTemperatureDewpointHumidityBarometerVisibilityWind DirectionWind SpeedGust SpeedPrecipitationEventsConditions
12:51 AM3.3 °C0.6 °C83 %989.5 hPa16.1 kmWSW (250°)31.5 km/h48.1 km/h0 mmRainLight Rain
1:14 AM2 °C0 °C87 %989.8 hPa8 kmWSW (250°)33.3 km/h48.1 km/h0.25 mmSnowLight Snow
1:18 AM2 °C0 °C87 %989.8 hPa4 kmWest (260°)38.9 km/h66.6 km/h0.25 mmSnowLight Snow
1:26 AM2 °C0 °C87 %989.5 hPa4.8 kmWSW (250°)33.3 km/h62.9 km/h0.25 mmSnowLight Snow
1:51 AM2.2 °C-0.6 °C82 %989.8 hPa14.5 kmWSW (240°)37 km/h55.5 km/h0.51 mmOvercast
2:51 AM1.7 °C-2.2 °C76 %991.9 hPa16.1 kmWSW (250°)40.7 km/h66.6 km/h0 mmOvercast
3:02 AM1 °C-4 °C70 %991.2 hPa16.1 kmWSW (250°)40.7 km/h70.3 km/hOvercast
3:51 AM0.6 °C-4.4 °C70 %992.9 hPa16.1 kmWSW (250°)40.7 km/h61.2 km/hOvercast
4:51 AM-0.6 °C-6.7 °C64 %994.6 hPa16.1 kmWest (260°)46.3 km/h62.9 km/hOvercast
5:51 AM-0.6 °C-7.2 °C61 %995.3 hPa16.1 kmWest (260°)38.9 km/h74 km/hOvercast
6:42 AM-1 °C-6 °C69 %996.3 hPa11.3 kmWest (260°)33.3 km/h53.8 km/h0 mmSnowLight Snow
6:51 AM-1.1 °C-5.6 °C72 %997 hPa4.8 kmWest (260°)38.9 km/h57.5 km/h0 mmSnowLight Snow
7:14 AM-2 °C-4 °C86 %997 hPa3.2 kmWest (260°)29.6 km/h53.8 km/h0 mmSnowLight Snow
7:22 AM-2 °C-4 °C86 %997.3 hPa1.6 kmWest (260°)33.3 km/h59.2 km/h0 mmSnowLight Snow
7:31 AM-2 °C-6 °C74 %997.6 hPa4.8 kmWSW (250°)38.9 km/h72.3 km/h0 mmSnowLight Snow
7:51 AM-1.7 °C-7.2 °C67 %998.3 hPa16.1 kmWest (260°)42.6 km/h64.9 km/h0 mmOvercast
8:21 AM-2 °C-7 °C69 %998.6 hPa2.9 kmWest (260°)40.7 km/h76 km/h0 mmSnowLight Snow
8:30 AM-2 °C-7 °C69 %999 hPa4 kmWest (260°)38.9 km/h66.6 km/hSnowLight Snow
8:38 AM-3 °C-6 °C80 %999 hPa1.6 kmWest (270°)31.5 km/h70.3 km/h0 mmSnowLight Snow
8:51 AM-2.2 °C-6.7 °C72 %999.7 hPa1.6 kmWest (260°)40.7 km/h70.3 km/h0 mmSnowLight Snow
8:53 AM-2 °C-7 °C69 %999.3 hPa4.8 kmWest (260°)37 km/h70.3 km/h0 mmSnowLight Snow
8:59 AM-2 °C-7 °C69 %999.7 hPa2.9 kmWSW (250°)37 km/h62.9 km/h0 mmSnowLight Snow
9:06 AM-3 °C-7 °C74 %999.7 hPa1.6 kmWSW (250°)37 km/h61.2 km/h0 mmSnowLight Snow
9:23 AM-3 °C-8 °C69 %1000 hPa4.8 kmWSW (250°)33.3 km/h68.6 km/h0 mmSnowLight Snow
9:35 AM-3 °C-8 °C69 %1000.3 hPa12.9 kmWest (260°)38.9 km/h74 km/h0 mmOvercast
9:51 AM-2.8 °C-7.8 °C69 %1001 hPa16.1 kmWest (260°)33.3 km/h59.2 km/h0 mmOvercast
9:55 AM-3 °C-7 °C74 %1000.7 hPa1.9 kmWest (260°)50.1 km/h72.3 km/h0 mmSnowLight Snow
10:03 AM-3 °C-8 °C69 %1000.7 hPa1.3 kmWSW (250°)29.6 km/h72.3 km/h0 mmSnowLight Snow
10:06 AM-3 °C-8 °C69 %1000.7 hPa4.8 kmWSW (250°)42.6 km/h66.6 km/h0 mmSnowLight Snow
10:14 AM-3 °C-8 °C69 %1001 hPa3.2 kmWSW (250°)46.3 km/h72.3 km/h0 mmSnowLight Snow
10:30 AM-3 °C-8 °C69 %1001.4 hPa14.5 kmWest (260°)42.6 km/h70.3 km/h0 mmOvercast
10:41 AM-3 °C-7 °C74 %1001.7 hPa2.9 kmWest (260°)33.3 km/h51.8 km/h0 mmSnowLight Snow
10:47 AM-4 °C-7 °C80 %1001.7 hPa0.8 kmWest (260°)37 km/h57.5 km/h0 mmSnowSnow
10:51 AM-3.3 °C-7.2 °C75 %1002.4 hPa0.8 kmWest (260°)44.4 km/h62.9 km/h0 mmSnowSnow
10:59 AM-4 °C-6 °C86 %1001.7 hPa0.3 kmWSW (250°)33.3 km/h62.9 km/h0 mmFog-SnowSnow
11:34 AM-4 °C-7 °C80 %1002 hPa0.8 kmWest (260°)44.4 km/h74 km/h0.25 mmSnowSnow
11:39 AM-3 °C-8 °C69 %1002 hPa1.3 kmWSW (250°)25.9 km/h74 km/h0.25 mmSnowLight Snow
11:51 AM-5 °C-6.7 °C88 %1003 hPa0.3 kmWest (260°)25.9 km/h53.8 km/h0.25 mmFog-SnowSnow
11:59 AM-3 °C-7 °C74 %1002.4 hPa1.3 kmWest (260°)33.3 km/h51.8 km/h0 mmSnowLight Snow
12:02 PM-3 °C-7 °C74 %1002 hPa3.2 kmWSW (250°)31.5 km/h51.8 km/h0 mmSnowLight Snow
12:16 PM-4 °C-7 °C80 %1002.4 hPa1.6 kmWSW (250°)35.2 km/h59.2 km/h0 mmSnowLight Snow
12:20 PM-4 °C-7 °C80 %1002.4 hPa1.3 kmWSW (250°)35.2 km/h57.5 km/h0 mmSnowLight Snow
12:22 PM-4 °C-7 °C80 %1002.4 hPa1.6 kmWSW (250°)44.4 km/h70.3 km/h0 mmSnowLight Snow
12:27 PM-4 °C-7 °C80 %1002.7 hPa0.8 kmWest (260°)40.7 km/h70.3 km/h0 mmSnowSnow
12:39 PM-4 °C-6 °C86 %1002.7 hPa0.8 kmWSW (240°)31.5 km/h57.5 km/h0 mmSnowSnow
12:51 PM-3.9 °C-7.8 °C75 %1003.4 hPa1.3 kmWSW (240°)25.9 km/h42.6 km/h0.25 mmSnowLight Snow
12:59 PM-4 °C-8 °C74 %1002.7 hPa2.9 kmWSW (250°)33.3 km/h51.8 km/h0 mmSnowLight Snow
1:48 PM-4 °C-8 °C74 %1003 hPa0.8 kmWSW (240°)33.3 km/h64.9 km/h0 mmSnowSnow
1:51 PM-4.4 °C-8.3 °C75 %1004.1 hPa0.8 kmWSW (240°)33.3 km/h64.9 km/h0 mmSnowSnow
1:55 PM-4 °C-9 °C69 %1003.4 hPa1.6 kmWSW (240°)31.5 km/h64.9 km/h0 mmSnowLight Snow
2:05 PM-4 °C-8 °C74 %1003.4 hPa0.8 kmWSW (250°)35.2 km/h57.5 km/h0 mmSnowSnow
2:28 PM-4 °C-8 °C74 %1003.7 hPa1.6 kmWest (260°)37 km/h62.9 km/h0 mmSnowLight Snow
2:35 PM-4 °C-8 °C74 %1003.7 hPa0.8 kmWest (260°)40.7 km/h62.9 km/h0 mmSnowSnow
2:45 PM-4 °C-8 °C74 %1004.1 hPa1.6 kmWSW (240°)29.6 km/h57.5 km/h0 mmSnowLight Snow
2:46 PM-4.4 °C-8.3 °C75 %1004.7 hPa1.9 kmWSW (250°)29.6 km/h57.5 km/h0 mmSnowLight Snow
3:21 PM-5 °C-8 °C80 %1004.7 hPa0.8 kmWSW (240°)29.6 km/h50.1 km/h0 mmSnowSnow
3:34 PM-6 °C-7 °C93 %1005.1 hPa0.3 kmWSW (250°)33.3 km/h53.8 km/h0 mmFog-SnowSnow
3:51 PM-5.6 °C-7.8 °C85 %1006.1 hPa0.8 kmWest (260°)35.2 km/h61.2 km/h0 mmFog-SnowLight Snow
4:05 PM-6 °C-7 °C93 %1005.4 hPa0.3 kmWest (260°)29.6 km/h79.7 km/h0 mmFog-SnowSnow
4:32 PM-6 °C-8 °C86 %1005.8 hPa0.3 kmWest (260°)37 km/h61.2 km/h0 mmFog-SnowSnow
4:51 PM-5.6 °C-7.8 °C85 %1006.8 hPa0.3 kmWest (260°)42.6 km/h55.5 km/h0.25 mmFog-SnowSnow
4:55 PM-6 °C-8 °C86 %1005.8 hPa1.3 kmWest (260°)35.2 km/h55.5 km/h0 mmSnowLight Snow
4:59 PM-5 °C-9 °C74 %1005.8 hPa0.3 kmWest (260°)40.7 km/h55.5 km/h0 mmSnowHeavy Snow
5:09 PM-6 °C-8 °C86 %1006.1 hPa0.3 kmWSW (250°)35.2 km/h68.6 km/h0 mmFog-SnowSnow
5:20 PM-6 °C-9 °C80 %1006.1 hPa0.8 kmWest (270°)33.3 km/h61.2 km/h0 mmSnowSnow
5:33 PM-5 °C-9 °C74 %1006.1 hPa1.6 kmWest (260°)27.8 km/h51.8 km/h0 mmSnowLight Snow
5:42 PM-5 °C-8 °C80 %1006.1 hPa1.9 kmWest (270°)35.2 km/h53.8 km/h0 mmSnowLight Snow
5:51 PM-5 °C-9.4 °C72 %1007.5 hPa2.4 kmWest (260°)38.9 km/h53.8 km/h0 mmSnowLight Snow
6:07 PM-6 °C-8 °C86 %1006.4 hPa1.3 kmWest (270°)31.5 km/h59.2 km/h0 mmSnowLight Snow
6:10 PM-6 °C-8 °C86 %1006.4 hPa0.8 kmWest (270°)35.2 km/h59.2 km/h0 mmFog-SnowLight Snow
6:20 PM-5 °C-8 °C80 %1006.4 hPa1.6 kmWest (260°)31.5 km/h62.9 km/h0 mmSnowLight Snow
6:32 PM-4 °C-10 °C64 %1006.4 hPa4.8 kmWest (260°)31.5 km/h53.8 km/h0 mmOvercast
6:39 PM-4 °C-10 °C64 %1006.4 hPa12.9 kmWest (260°)33.3 km/h59.2 km/h0 mmOvercast
6:51 PM-4.4 °C-8.9 °C71 %1007.8 hPa14.5 kmWest (260°)37 km/h51.8 km/h0 mmOvercast
7:19 PM-4 °C-9 °C69 %1006.8 hPa3.2 kmWest (270°)35.2 km/h59.2 km/h0 mmOvercast
7:28 PM-4 °C-10 °C64 %1006.8 hPa12.9 kmWest (260°)31.5 km/h42.6 km/h0 mmOvercast
7:51 PM-3.9 °C-11.7 °C55 %1008.1 hPa6.4 kmWest (260°)37 km/h53.8 km/h0 mmHaze
8:51 PM-4.4 °C-11.7 °C57 %1008.5 hPa11.3 kmWest (260°)31.5 km/h53.8 km/h0 mmOvercast
9:51 PM-5 °C-11.1 °C63 %1009.5 hPa16.1 kmWest (260°)31.5 km/h51.8 km/h0 mmOvercast
10:18 PM-6 °C-9 °C80 %1008.5 hPa2.9 kmWSW (250°)25.9 km/h50.1 km/h0 mmSnowLight Snow
10:26 PM-6 °C-9 °C80 %1008.5 hPa4.8 kmWSW (250°)22.2 km/h35.2 km/h0 mmSnowLight Snow
10:33 PM-6 °C-11 °C68 %1008.8 hPa2.9 kmWest (260°)29.6 km/h55.5 km/h0 mmSnowLight Snow
10:40 PM-6 °C-9 °C80 %1008.5 hPa1.3 kmWSW (250°)29.6 km/h46.3 km/h0 mmSnowLight Snow
10:51 PM-6.1 °C-8.9 °C81 %1009.8 hPa2.9 kmWSW (250°)24.1 km/h40.7 km/h0 mmSnowLight Snow
10:53 PM-6 °C-9 °C80 %1008.5 hPa4.8 kmWSW (250°)22.2 km/h40.7 km/h0 mmSnowLight Snow
11:08 PM-6 °C-12 °C63 %1008.5 hPa16.1 kmWest (260°)25.9 km/h44.4 km/h0 mmOvercast
11:33 PM-6 °C-9 °C80 %1008.5 hPa9.7 kmWNW (290°)29.6 km/h42.6 km/h0 mmSnowLight Snow
11:51 PM-6.1 °C-8.9 °C81 %1009.8 hPa1.9 kmWNW (290°)33.3 km/h51.8 km/h0 mmSnowLight Snow
Hourly data recorded from KERI, located 0 kilometers away from Fairview, Pennsylvania







STORIES FROM OUR PARTNERS